Probability
0 0 0 0 0 0 0 0 0 0 0 0 0 0 0 0 0 0 0 0 0 0 0 0 0 0 0 0 0 0 0 0 1 2 3 4 5 6
0 0 0 0 0 0 0 0 0 0 0 0 0 0 0 0 0 0 0 0 0 0 0 0 0 0 0 0 0 0 0 0 0 1 1 1 2 2
0 0 0 0 0 0 0 0 0 0 0 0 0 0 0 0 0 0 0 0 0 0 0 0 0 0 0 0 0 0 0 0 0 0 0 0 0 0
0 0 0 0 0 0 0 0 0 0 0 0 0 0 0 0 0 0 0 0 0 0 0 0 0 0 0 0 0 0 0 0 0 0 0 0 0 0
0 0 0 0 0 0 0 0 0 0 0 0 0 0 0 0 0 0 0 0 0 0 0 0 0 0 0 0 0 0 0 0 0 0 0 0 0 0
0 0 0 0 0 0 0 1 1 0 0 0 0 0 0 0 0 0 0 0 0 0 0 1 1 1 0 0 0 0 0 0 0 0 0 0 0 0
0 1 1 1 0 0 0 1 1 0 0 0 0 0 0 0 0 0 1 1 1 0 0 1 2 2 1 1 0 0 0 0 0 0 0 0 0 0
2 3 2 1 0 0 0 1 1 0 0 0 0 0 0 0 0 0 1 2 2 1 1 1 3 3 2 1 0 0 0 0 0 0 0 0 0 0
5 6 4 2 0 0 0 0 0 0 0 0 0 0 0 0 0 0 0 1 2 2 2 1 2 3 2 1 0 0 0 0 0 0 0 0 0 0
7 8 7 4 1 0 0 0 0 0 0 0 0 0 0 0 1 0 0 0 1 3 2 1 2 3 2 1 0 0 0 0 0 0 0 0 0 0
7 7 6 4 1 0 0 0 0 0 0 0 0 0 0 0 0 0 0 0 1 2 2 1 1 2 2 1 1 1 0 0 0 0 0 0 0 0
7 5 3 1 0 0 0 1 0 0 1 0 0 1 1 1 1 0 0 0 0 1 2 1 1 1 1 1 2 3 3 2 1 0 0 0 0 0
5 3 1 0 0 0 0 0 0 0 0 0 1 3 3 3 2 1 1 0 0 0 1 1 0 0 0 1 3 6 6 6 3 2 1 0 0 0
2 2 1 0 0 0 0 0 0 0 0 0 1 2 4 5 6 6 4 2 0 0 0 0 1 1 1 1 4 7 8 8 7 5 4 3 1 1
1 1 0 0 0 0 0 0 0 0 0 1 2 3 5 8 10 10 7 3 1 1 1 1 1 2 3 3 4 6 6 7 7 6 6 6 4 3
0 0 0 0 0 0 0 0 0 1 1 2 3 4 7 10 11 10 7 4 3 2 2 2 2 4 5 5 4 3 3 4 5 5 6 6 5 5
0 0 0 0 0 0 0 0 2 3 4 4 4 5 6 7 8 8 7 5 3 3 3 3 4 5 5 5 2 1 1 2 3 5 6 4 3 4
0 0 0 0 0 0 0 1 3 5 6 6 7 5 4 3 3 4 5 4 3 2 2 3 4 4 3 2 1 0 0 1 2 4 4 3 2 2
0 0 0 0 0 0 1 3 4 5 6 6 6 4 2 0 0 1 1 1 1 1 1 1 1 1 1 1 0 0 0 0 1 2 2 2 2 1
0 0 0 0 0 0 1 3 3 3 3 3 3 2 1 0 0 0 0 0 0 0 0 0 0 0 0 0 0 0 0 0 0 1 2 3 2 1
0 0 0 0 0 0 1 1 2 2 1 1 2 2 1 0 0 0 0 0 0 0 0 0 0 0 0 0 0 1 0 0 0 1 2 4 3 2
0 0 0 0 0 0 0 0 1 1 0 1 2 2 1 0 0 0 0 0 0 0 0 0 0 0 0 0 0 0 0 0 0 1 1 2 3 2
0 0 0 0 0 0 0 0 0 0 1 1 1 1 1 0 0 0 0 0 0 0 0 0 0 0 0 0 0 0 0 0 0 0 0 1 2 1
Wind_Speed
4 4 5 4 4 5 5 6 7 8 7 3 4 3 4 5 2 6 7 1 3 6 7 7 7 8 9 9 11 12 13 14 15 16 18 20 22 23
4 4 5 5 4 5 5 6 6 8 8 7 5 6 5 7 4 7 9 6 10 10 9 8 8 9 9 10 10 11 12 13 15 15 16 17 18 20
5 5 6 6 6 6 5 6 6 7 9 8 7 6 6 9 8 8 9 9 9 11 9 9 9 10 11 11 11 11 12 12 13 14 15 17 18 19
6 6 7 6 6 7 6 7 7 7 9 10 9 8 8 8 8 9 10 9 9 6 10 10 11 11 12 12 12 12 12 12 13 13 14 15 17 18
7 7 8 7 8 7 7 8 7 7 7 9 10 7 8 8 8 9 11 8 11 9 10 13 13 13 12 13 13 13 13 13 13 13 14 14 15 17
8 8 9 9 9 9 8 9 8 9 8 9 9 8 8 8 7 9 9 8 8 9 9 8 10 13 14 14 14 14 14 14 13 13 14 14 15 15
9 9 10 8 7 8 9 9 8 8 9 9 9 9 8 7 7 8 9 8 8 8 9 9 9 10 11 15 17 16 15 14 14 14 14 14 15 15
10 10 10 10 12 14 14 14 12 12 12 10 10 10 10 9 8 8 9 9 9 7 7 9 9 9 9 10 10 14 15 14 14 14 14 14 15 15
10 10 10 9 8 11 13 17 17 18 17 14 14 13 12 10 10 11 10 11 11 9 9 11 10 10 10 10 8 10 12 13 13 14 14 14 15 15
12 12 12 12 11 10 12 12 13 13 14 15 14 14 13 11 10 11 12 12 13 11 11 12 11 10 10 9 10 14 14 14 14 14 14 14 14 15
13 13 13 14 11 9 12 13 14 13 13 15 15 14 12 11 10 10 12 12 12 11 9 11 11 11 10 10 10 15 15 15 14 14 14 14 14 13
11 12 13 15 12 11 12 13 14 13 13 11 12 15 16 16 16 15 13 13 12 12 9 9 10 10 11 10 9 8 11 14 16 16 15 15 13 10
11 10 10 11 14 14 14 14 14 12 12 13 12 12 12 11 12 13 13 12 13 12 10 8 10 10 10 10 9 8 9 8 10 12 15 16 15 13
12 12 10 6 10 12 13 14 13 11 11 12 12 12 11 11 10 10 12 13 13 14 13 12 11 11 11 12 11 9 9 8 9 9 9 11 14 16
12 13 12 9 9 11 16 16 13 11 12 12 13 12 11 10 9 8 10 12 14 15 15 15 14 12 12 13 12 11 10 9 9 9 9 8 8 9
12 12 13 15 14 14 12 12 12 12 12 12 12 11 10 9 9 10 10 10 11 11 14 16 16 15 14 14 13 13 11 10 9 9 9 9 9 9
10 10 11 11 11 11 11 11 11 11 12 12 12 11 10 10 10 9 9 10 11 11 11 10 12 13 15 14 12 13 12 11 11 9 9 10 10 10
9 12 12 12 12 12 11 10 10 10 10 10 11 11 10 10 9 9 9 10 11 11 11 10 9 9 10 11 13 15 13 12 11 10 10 11 11 10
10 12 12 12 11 11 11 11 11 10 9 10 10 10 10 9 9 9 10 10 11 11 11 9 9 10 12 13 12 16 14 11 10 10 10 10 11 9
10 11 11 11 11 11 11 11 10 10 9 9 10 10 10 10 10 10 10 12 11 11 10 9 10 11 12 12 11 9 15 13 10 11 10 9 9 7
10 10 11 11 11 10 10 10 10 10 10 9 9 10 10 10 10 11 11 12 12 11 11 10 10 11 10 9 10 11 10 12 11 9 9 8 9 8
10 11 10 11 11 10 10 9 10 10 11 10 10 10 10 10 11 13 11 11 11 11 12 10 10 9 9 11 12 12 10 8 8 8 7 7 7 6
11 11 10 10 10 9 10 10 12 10 10 10 10 9 10 10 10 10 11 11 11 11 11 10 9 8 10 10 10 10 11 9 6 6 7 6 7 7
Wind_Direction
253 238 261 281 275 285 286 289 295 298 299 295 283 296 293 292 318 289 288 254 273 275 273 268 257 249 241 238 236 235 234 234 233 232 230 229 230 231
263 283 278 276 281 276 278 278 279 286 292 299 293 296 314 304 275 285 280 263 244 245 252 259 258 253 247 241 239 237 234 233 231 229 229 229 230 232
251 249 255 276 280 282 273 272 273 276 281 287 289 289 283 281 292 289 280 274 261 214 223 244 253 251 247 244 241 239 237 235 234 232 230 228 229 231
256 260 261 258 257 269 278 278 278 281 278 285 288 284 278 276 274 277 277 274 277 228 207 233 246 247 244 243 241 239 238 237 237 236 235 232 231 231
257 259 261 262 261 265 268 273 275 270 270 277 280 284 280 276 280 273 271 269 273 260 218 223 232 238 240 240 238 238 236 236 237 238 239 238 236 234
257 259 260 259 259 263 262 262 267 275 272 270 275 278 276 272 270 274 274 262 263 273 269 255 232 224 232 234 233 233 233 233 234 236 238 239 239 238
255 254 255 255 267 266 273 275 272 269 274 275 276 277 277 282 279 284 284 286 272 267 268 263 248 240 228 224 226 227 227 229 232 234 236 237 239 239
258 259 258 237 234 230 243 256 265 268 272 278 279 280 281 282 282 282 283 282 281 273 272 271 267 262 256 251 224 205 214 224 231 234 236 236 237 238
259 261 263 263 245 250 235 227 238 242 247 262 273 277 281 280 284 280 275 279 283 290 286 276 271 264 260 255 208 201 214 225 232 236 237 237 237 237
256 256 258 265 261 257 263 258 253 243 232 233 249 261 266 275 273 272 278 274 267 260 257 265 268 265 262 258 214 204 215 225 230 234 236 237 238 238
256 257 257 259 252 231 251 260 262 262 249 235 243 254 266 271 269 271 268 268 269 266 250 255 265 267 266 261 242 205 212 222 228 232 234 235 236 238
260 257 247 244 250 220 241 254 258 261 268 260 236 240 247 246 233 240 255 262 267 269 262 257 263 267 268 260 253 230 217 219 222 227 229 232 229 233
270 268 265 219 223 224 232 250 257 268 271 269 263 254 246 243 237 228 234 248 260 264 266 259 262 263 264 270 266 257 251 244 224 222 220 222 217 219
271 273 274 226 220 226 231 244 249 255 260 262 261 259 256 252 247 244 240 242 250 261 270 273 269 267 267 267 265 260 253 250 250 249 239 206 208 217
267 274 281 260 244 240 237 237 236 240 247 252 256 259 259 259 260 255 251 248 251 253 254 252 252 256 257 261 266 264 260 253 247 248 247 238 226 213
259 264 250 244 243 255 255 229 229 239 246 254 259 262 262 257 250 250 252 250 249 250 242 241 244 248 252 254 258 261 259 257 252 246 247 246 239 234
305 282 270 260 251 246 244 242 241 239 237 246 255 258 257 254 252 250 251 254 254 257 258 246 237 235 242 251 255 255 256 255 253 249 246 249 245 240
274 267 267 266 264 263 260 255 248 248 249 250 252 255 258 258 257 252 249 249 253 255 257 259 253 246 243 243 237 251 253 253 251 246 244 246 247 240
249 260 265 267 267 266 265 263 260 256 252 251 252 252 253 254 255 255 253 250 251 254 256 256 253 249 249 250 237 219 240 248 247 245 240 241 249 247
255 266 270 271 270 269 268 266 264 262 252 249 249 248 247 249 251 250 250 250 250 252 253 251 248 245 248 259 267 249 219 237 243 244 243 241 247 249
277 274 274 275 275 274 272 268 265 263 259 254 251 250 248 247 247 249 250 249 250 252 252 251 251 250 254 259 261 258 242 220 235 245 247 245 242 236
282 280 279 278 278 275 271 267 265 263 260 254 251 250 248 247 248 249 251 250 247 247 252 255 255 249 245 246 252 257 256 241 217 224 247 253 249 243
286 284 281 279 275 271 269 268 268 268 265 261 256 252 252 250 249 251 252 250 250 251 252 254 252 249 247 246 251 253 252 247 235 222 226 224 233 248